MIDAS 4 DEB, 195

Orbit data source: Space-Track

MIDAS 4 DEB, 195 is space debris in LEO originally from a launch on Sat, 21 Oct 1961 UTC launched from the Air Force Western Test Range (AFWTR). Debris objects in space refer to the collection of defunct objects orbiting the Earth. Examples of debris include non-operational satellites, rocket bodies, and fragments generated from explosions, collisions, or faulty payload assembly.

Loading next visibility...
Identifier
195, 1961-028D
Orbit
LEO
Last TLE update
2 days ago
Origin
Manufacturer
Unknown
Mission
Spacecraft
Bus & Motor
Unknown
Mass
~10 kg wet, ~10 kg dry
Launch date (UTC)
1961-10-21 (64 years ago)
Launch vehicle
Unknown
Launch site
Air Force Western Test Range (AFWTR)
Object type
Payload
Rocket body
Debris
Shape & HBR
Unknown
Radar Cross Section
Medium (>0.1 m² and <1 m²)

Expand to show TLE details & history

TLE from 2 days ago
0 MIDAS 4 DEB
1 00195U 61028D   25127.40803636  .00000035  00000-0  17480-1 0  9998
2 00195  95.8532 119.4427 0127662 104.8358 256.6673  8.65619743  7911
Epoch: 2025-05-07T09:47Z
Definitive object data (Epoch: 2025-05-07T09:47:34.341Z)
Latitude
Longitude
107.0563°
Altitude
3,674.655 km
Speed
6.288 km/s
True Right ascension
07h 57m 46s
True Declination
0° 00' 00"
Sunlit
Object was in daylight at TLE epoch
Visualization TLE readout
Latitude
-68.54951°
Longitude
-87.62872°
Altitude
3,772.898 km
Speed
6.234 km/s
Apparent Right ascension
22h 47m 49s
Apparent Declination
-66° 47' 37"
Sunlit
Object is in daylight
Visualization observer readout
Local Sidereal Time
13:26:26
Azimuth
153.766° SSE
Elevation
-55.33°
Doppler factor
1
Orbital elements
Apogee altitude
3,767.225 km
Perigee altitude
3,511.455 km
Semi-major axis
10,017.477 km
Eccentricity
0.0127662
Inclination
95.8532°
RAAN
119.4427°
Arg. of periapsis
104.8358°
True anomaly
255.24919°
Mean anomaly
256.6673°
Eccentric anomaly
255.95771°
Mean motion
2.16474 °/min
BSTAR
0.01748
Orbital period
166.3 mins
Loading maneuver chart data...
Loading SW <> Apogee altitude chart data...
Loading historical data...
Loading historical data...
Loading historical data...
Loading historical data...
Loading historical data...
Loading historical data...
Loading historical data...

MIDAS 4 DEB Visibility forecast

Observer location: undefined°, undefined°

Span
Click to sort rows by Start time (UTC) header in descending order
Start Az.
Max El. time (UTC)
Max El. Az.
Max El.
End time (UTC)
End Az.
30 mins2025-05-09 09:45:47.590Z22.765° NE2025-05-09 10:00:47.590Z83.562° E28.179°2025-05-09 10:15:47.590Z141.402° SSE
33 mins2025-05-09 12:29:47.590Z5.675° NNE2025-05-09 12:45:47.590Z284.55° WNW43.412°2025-05-09 13:02:47.590Z208.968° SW
18 mins2025-05-09 15:15:47.590Z350.543° N2025-05-09 15:23:47.590Z320.827° NNW18.07°2025-05-09 15:33:47.590Z284.08° WNW
21 mins2025-05-09 20:17:47.590Z83.028° E2025-05-09 20:27:47.590Z46.109° ENE20.57°2025-05-09 20:38:47.590Z5.08° NNE
34 mins2025-05-09 22:50:47.590Z156.665° SSE2025-05-09 23:07:47.590Z63.225° ENE44.434°2025-05-09 23:24:47.590Z352.647° N
27 mins2025-05-10 01:39:47.590Z229.206° WSW2025-05-10 01:52:47.590Z278.986° WNW25.074°2025-05-10 02:06:47.590Z334.009° NNW
|